Regional Weather Roundup
Issued by NWS Burlington, VT

Home | Current Version | Previous Version | Text Only | Print | Product List | Glossary On
Versions: 1 2 3 4 5 6 7 8 9 10 11 12 13 14 15 16 17 18 19 20 21 22 23 24 25 26 27 28 29 30 31 32 33 34 35 36 37 38 39 40 41 42 43 44 45 46 47 48 49 50
000
ASUS41 KBTV 292330
RWRBTV
VERMONT REGIONAL WEATHER ROUNDUP
NATIONAL WEATHER SERVICE BURLINGTON VT
700 PM EDT MON AUG 29 2016

NOTE: "FAIR" INDICATES FEW OR NO CLOUDS BELOW 12,000 FEET WITH NO
SIGNIFICANT WEATHER AND/OR OBSTRUCTIONS TO VISIBILITY.

* THESE REPORTS ARE NOT UNDER NWS QUALITY CONTROL AND/OR DO NOT
  REPORT WEATHER SUCH AS PRECIPITATION AND FOG.

VTZ001>019-300000-
_____VERMONT_____


CITY           SKY/WX    TMP DP  RH WIND       PRES   REMARKS
BURLINGTON     PTCLDY    74  52  46 NW6       30.17S
MONTPELIER     CLEAR     66  55  67 NW6       30.23S
MORRISVILLE    CLEAR     64  57  78 CALM      30.20S
ST. JOHNSBURY*   N/A     69  54  58 MISG      30.15F
LYNDONVILLE*   FAIR      64  55  73 W3        30.20S
MIDDLEBURY*    FAIR      70  54  57 NE3       30.16F
RUTLAND*       CLEAR     71  55  56 N7        30.17R
SPRINGFIELD    CLEAR     73  51  46 VRB3      30.16R
HIGHGATE*      FAIR      68  58  70 CALM      30.17R
NEWPORT*       FAIR      64  56  76 W3        30.19R
BENNINGTON     CLEAR     74  56  53 VRB3      30.15R
SUTTON*          N/A     61 N/A N/A MISG        N/A
MT. MANSFIELD*   N/A     54 N/A N/A NW16        N/A

_____LAKE CHAMPLAIN_____


CITY           SKY/WX    TMP DP  RH WIND       PRES   REMARKS
BURTON ISLAND*   N/A     73  57  56 W1          N/A
COLCHESTER RF*   N/A     73  57  56 N8          N/A
DIAMOND ISL*     N/A     73  59  60 N15         N/A

$$

NYZ007-026>031-035-052-083-087-300000-
_____NORTHERN NEW YORK_____


CITY           SKY/WX    TMP DP  RH WIND       PRES   REMARKS
PLATTSBURGH    CLEAR     73  55  53 NW3       30.16S
SARANAC LAKE   CLEAR     68  52  56 CALM      30.21F
MASSENA        CLOUDY    72  57  59 NW3       30.19S
OGDENSBURG*    CLEAR     72  57  60 CALM      30.18S
POTSDAM*       PTCLDY    72  61  68 CALM      30.19S
WATERTOWN      CLEAR     76  52  43 N7        30.18S
FT DRUM        CLEAR     72  56  56 N5        30.19S
ALBANY         PTCLDY    79  56  45 NE8       30.12R
GLENS FALLS    CLEAR     75  56  51 NE9       30.14R

$$
NHZ002-005-011-300000-
_____NEW HAMPSHIRE_____


CITY           SKY/WX    TMP DP  RH WIND       PRES   REMARKS
LEBANON        CLEAR     73  54  51 N9        30.15F
KEENE          CLEAR     75  55  49 N12       30.13R
MT WASHINGTON  FOG       45  45 100 NW33G44     N/A  VSB 0
PLYMOUTH       FAIR      68  54  60 NW9       30.14F
WHITEFIELD     PTCLDY    67  55  65 W3        30.18S

$$

_____REGIONAL QUEBEC LOCATIONS_____


CITY           SKY/WX    TMP DP  RH WIND       PRES   REMARKS
MONTREAL       MOCLDY    75  55  50 W21       30.13S
QUEBEC CITY    MOCLDY    70  55  60 W7        30.08S
SHERBROOKE     CLEAR     64  57  77 W5        30.15S

_____REGIONAL ONTARIO LOCATIONS_____


CITY           SKY/WX    TMP DP  RH WIND       PRES   REMARKS
OTTAWA         PTCLDY    73  54  49 NW7       30.19S

______KEY______
VSB  - VISIBILITY IN MILES
WCI  - WIND CHILL INDEX
HX   - HEAT INDEX
$$
NNNN




USA.gov is the U.S. government's official web portal to all federal, state and local government web resources and services.